Powrót do katalogu

SAR LUPE 4

AktywnyMilitariaPO
NORAD 32750·PAYLOAD·🇩🇪 Germany

Wystrzelony Mar 27, 2008 z Plesetsk Cosmodrome

Loading…

Następne Przeloty (najbliższe 24 godziny)

TLE

NieaktualneSource: Mike McCants

Epoka: Feb 4, 2026, 18:03 UTC

1 32750U 08014A   26035.75259379 0.00007000  00000-0  25550-3 0    03
2 32750  98.1305  55.7157 0002972 192.8840 167.1158 15.28161042    06

Śledź SAR LUPE 4 w czasie rzeczywistym z AllMySat

Download on the App Store